SL-16 R/B (25407 NORAD) Tracking and Keplerian Element Data

This shows tracking and keplerian element data for the satellite.

Feedback or suggestion? Click here.




ElementValue
Catalog25407
NameSL-16 R/B
Epoch Orbit5344
Epoch Day350.93096554
Epoch Year2018
RAAN330.3471
Inclination71.0112
Eccentricity0.0005442
Argument of Perigee93.8372
Mean Anonmoly266.3373
Mean Motion14.15777921
Decay Rate-3.2E-07
L11 25407U 98045B 18350.93096554 -.00000032 00000-0 81577-5 0 9991
L22 25407 71.0112 330.3471 0005442 93.8372 266.3373 14.15777921 53440

Live tracking and technical data element details for SL-16 R/B (NORAD 25407). SL-16 R/B can be tracked NOW for your location showing map with azimuth and elevation plus other details from your city location.

Track the satellite on the map from your city or location and see movement details for azimuth, elevation, latitude, longitude, range, height, and movement on the map or in text.







IsCatalogInMostPopularTable: catalog: 25407, numindb: 38
Update: records affected: 1



GetName: 25407 SL-16 R/B

Hit Count: updated at: Tue, 18 Dec 2018 22:18:46 GMT